Time,TemperatureF,DewpointF,PressureIn,WindDirection,WindDirectionDegrees,WindSpeedMPH,WindSpeedGustMPH,Humidity,HourlyPrecipIn,Conditions,Clouds,dailyrainin,SolarRadiationWatts/m^2,SoftwareType,DateUTC
2013-07-06 00:07:00,66.8,64.0,30.02,SE,144,2.0,6.0,89,0.00,,,0.00,0,weatherlink.com 1.10,2013-07-06 05:07:00,
2013-07-06 00:22:00,66.7,64.0,30.03,SE,135,4.0,6.0,90,0.00,,,0.00,0,weatherlink.com 1.10,2013-07-06 05:22:00,
2013-07-06 00:36:00,66.7,64.0,30.03,SE,146,0.0,7.0,90,0.00,,,0.00,0,weatherlink.com 1.10,2013-07-06 05:36:00,
2013-07-06 00:51:00,66.9,64.0,30.02,SE,134,2.0,4.0,91,0.00,,,0.00,0,weatherlink.com 1.10,2013-07-06 05:51:00,
2013-07-06 01:06:00,67.0,65.0,30.03,SSE,152,2.0,7.0,92,0.00,,,0.00,0,weatherlink.com 1.10,2013-07-06 06:06:00,
2013-07-06 01:21:00,67.3,65.0,30.02,ESE,110,2.0,7.0,92,0.00,,,0.00,0,weatherlink.com 1.10,2013-07-06 06:21:00,
2013-07-06 01:36:00,67.5,65.0,30.02,East,89,3.0,5.0,92,0.00,,,0.00,0,weatherlink.com 1.10,2013-07-06 06:36:00,
2013-07-06 01:51:00,67.6,66.0,30.02,ESE,102,6.0,6.0,93,0.00,,,0.00,0,weatherlink.com 1.10,2013-07-06 06:51:00,
2013-07-06 02:06:00,67.7,66.0,30.02,SE,141,1.0,3.0,93,0.00,,,0.00,0,weatherlink.com 1.10,2013-07-06 07:06:00,
2013-07-06 02:21:00,67.8,66.0,30.02,SSE,152,1.0,3.0,93,0.00,,,0.00,0,weatherlink.com 1.10,2013-07-06 07:21:00,
2013-07-06 02:37:00,67.8,66.0,30.01,SE,135,0.0,2.0,94,0.00,,,0.00,0,weatherlink.com 1.10,2013-07-06 07:37:00,
2013-07-06 02:52:00,67.8,66.0,30.02,SE,135,0.0,2.0,94,0.00,,,0.00,0,weatherlink.com 1.10,2013-07-06 07:52:00,
2013-07-06 03:06:00,67.7,66.0,30.01,SE,135,1.0,1.0,94,0.00,,,0.00,0,weatherlink.com 1.10,2013-07-06 08:06:00,
2013-07-06 03:21:00,67.7,66.0,30.02,SE,135,0.0,2.0,95,0.00,,,0.00,0,weatherlink.com 1.10,2013-07-06 08:21:00,
2013-07-06 03:36:00,67.6,66.0,30.03,SE,135,0.0,1.0,95,0.00,,,0.00,0,weatherlink.com 1.10,2013-07-06 08:36:00,
2013-07-06 03:52:00,67.9,67.0,30.02,SE,135,0.0,1.0,95,0.00,,,0.00,0,weatherlink.com 1.10,2013-07-06 08:52:00,
2013-07-06 04:06:00,68.1,67.0,30.02,SE,124,0.0,4.0,95,0.00,,,0.00,0,weatherlink.com 1.10,2013-07-06 09:06:00,
2013-07-06 04:22:00,68.5,67.0,30.03,SSE,149,3.0,4.0,95,0.00,,,0.00,0,weatherlink.com 1.10,2013-07-06 09:22:00,
2013-07-06 04:37:00,68.9,68.0,30.03,SSE,162,3.0,4.0,96,0.00,,,0.00,0,weatherlink.com 1.10,2013-07-06 09:37:00,
2013-07-06 04:52:00,69.3,68.0,30.03,SSE,155,1.0,3.0,95,0.00,,,0.00,0,weatherlink.com 1.10,2013-07-06 09:52:00,
2013-07-06 05:06:00,69.5,68.0,30.03,SSE,156,0.0,3.0,95,0.00,,,0.00,0,weatherlink.com 1.10,2013-07-06 10:06:00,
2013-07-06 05:21:00,69.6,68.0,30.03,South,169,3.0,3.0,95,0.00,,,0.00,0,weatherlink.com 1.10,2013-07-06 10:21:00,
2013-07-06 05:38:00,69.5,68.0,30.04,SSE,158,2.0,3.0,95,0.00,,,0.00,0,weatherlink.com 1.10,2013-07-06 10:38:00,
2013-07-06 05:54:00,69.3,68.0,30.04,SE,141,0.0,2.0,95,0.00,,,0.00,0,weatherlink.com 1.10,2013-07-06 10:54:00,
2013-07-06 06:07:00,69.3,68.0,30.04,SE,141,0.0,2.0,95,0.00,,,0.00,7,weatherlink.com 1.10,2013-07-06 11:07:00,
2013-07-06 06:23:00,69.3,68.0,30.04,NNE,18,1.0,2.0,96,0.00,,,0.00,25,weatherlink.com 1.10,2013-07-06 11:23:00,
2013-07-06 06:38:00,69.6,69.0,30.04,West,264,1.0,3.0,96,0.00,,,0.00,42,weatherlink.com 1.10,2013-07-06 11:38:00,
2013-07-06 06:53:00,70.0,69.0,30.05,SSE,162,0.0,3.0,96,0.00,,,0.00,81,weatherlink.com 1.10,2013-07-06 11:53:00,
2013-07-06 07:08:00,70.8,70.0,30.05,SSE,162,3.0,4.0,96,0.00,,,0.00,95,weatherlink.com 1.10,2013-07-06 12:08:00,
2013-07-06 07:25:00,71.3,70.0,30.04,East,79,2.0,7.0,95,0.00,,,0.00,104,weatherlink.com 1.10,2013-07-06 12:25:00,
2013-07-06 07:40:00,71.7,70.0,30.04,SSE,161,3.0,6.0,95,0.00,,,0.00,176,weatherlink.com 1.10,2013-07-06 12:40:00,
2013-07-06 07:55:00,72.0,70.0,30.04,SE,143,2.0,7.0,94,0.00,,,0.00,234,weatherlink.com 1.10,2013-07-06 12:55:00,
2013-07-06 08:10:00,72.7,71.0,30.04,South,185,1.0,7.0,94,0.00,,,0.00,392,weatherlink.com 1.10,2013-07-06 13:10:00,
2013-07-06 08:25:00,74.0,72.0,30.05,South,172,5.0,7.0,92,0.00,,,0.00,445,weatherlink.com 1.10,2013-07-06 13:25:00,
2013-07-06 08:40:00,74.5,71.0,30.05,SSE,167,0.0,6.0,89,0.00,,,0.00,188,weatherlink.com 1.10,2013-07-06 13:40:00,
2013-07-06 08:55:00,75.4,71.0,30.05,SW,220,2.0,5.0,86,0.00,,,0.00,346,weatherlink.com 1.10,2013-07-06 13:55:00,
2013-07-06 09:11:00,75.8,71.0,30.05,SSE,168,1.0,5.0,84,0.00,,,0.00,271,weatherlink.com 1.10,2013-07-06 14:11:00,
2013-07-06 09:26:00,75.9,71.0,30.05,SE,146,2.0,5.0,84,0.00,,,0.00,239,weatherlink.com 1.10,2013-07-06 14:26:00,
2013-07-06 09:41:00,76.9,71.0,30.05,ENE,64,2.0,5.0,82,0.00,,,0.00,490,weatherlink.com 1.10,2013-07-06 14:41:00,
2013-07-06 09:57:00,77.4,72.0,30.06,SSE,147,2.0,5.0,82,0.00,,,0.00,274,weatherlink.com 1.10,2013-07-06 14:57:00,
2013-07-06 10:11:00,77.5,71.0,30.06,SSE,165,2.0,5.0,80,0.00,,,0.00,167,weatherlink.com 1.10,2013-07-06 15:11:00,
2013-07-06 10:26:00,77.9,72.0,30.06,SE,140,2.0,5.0,81,0.00,,,0.00,939,weatherlink.com 1.10,2013-07-06 15:26:00,
2013-07-06 10:41:00,78.4,72.0,30.06,SSW,197,7.0,7.0,81,0.00,,,0.00,844,weatherlink.com 1.10,2013-07-06 15:41:00,
2013-07-06 10:57:00,79.5,71.0,30.06,SSE,154,6.0,7.0,75,0.00,,,0.00,207,weatherlink.com 1.10,2013-07-06 15:57:00,
2013-07-06 11:13:00,79.4,72.0,30.06,South,176,7.0,10.0,79,0.00,,,0.00,1053,weatherlink.com 1.10,2013-07-06 16:13:00,
2013-07-06 11:28:00,80.0,71.0,30.06,SE,145,3.0,9.0,74,0.00,,,0.00,1056,weatherlink.com 1.10,2013-07-06 16:28:00,
2013-07-06 11:58:00,81.4,71.0,30.05,East,97,0.0,8.0,71,0.00,,,0.00,276,weatherlink.com 1.10,2013-07-06 16:58:00,
2013-07-06 12:13:00,80.8,70.0,30.05,SSW,197,6.0,9.0,70,0.00,,,0.00,332,weatherlink.com 1.10,2013-07-06 17:13:00,
2013-07-06 12:43:00,81.8,72.0,30.04,SSE,156,3.0,9.0,72,0.00,,,0.00,1018,weatherlink.com 1.10,2013-07-06 17:43:00,
2013-07-06 13:30:00,83.4,71.0,30.02,SE,138,5.0,7.0,67,0.00,,,0.00,976,weatherlink.com 1.10,2013-07-06 18:30:00,
2013-07-06 14:00:00,84.0,70.0,30.01,SSE,155,5.0,11.0,63,0.00,,,0.00,969,weatherlink.com 1.10,2013-07-06 19:00:00,
2013-07-06 14:15:00,84.5,71.0,30.01,SSE,151,1.0,8.0,64,0.00,,,0.00,951,weatherlink.com 1.10,2013-07-06 19:15:00,
2013-07-06 14:30:00,84.2,71.0,30.00,SSE,149,4.0,8.0,65,0.00,,,0.00,990,weatherlink.com 1.10,2013-07-06 19:30:00,
2013-07-06 14:46:00,84.3,70.0,30.00,SE,126,2.0,7.0,63,0.00,,,0.00,997,weatherlink.com 1.10,2013-07-06 19:46:00,
2013-07-06 15:01:00,84.1,71.0,30.00,SE,140,0.0,9.0,64,0.00,,,0.00,905,weatherlink.com 1.10,2013-07-06 20:01:00,
2013-07-06 15:17:00,83.6,69.0,29.99,SSE,158,3.0,8.0,62,0.00,,,0.00,146,weatherlink.com 1.10,2013-07-06 20:17:00,
2013-07-06 15:33:00,83.9,71.0,29.99,South,169,1.0,4.0,66,0.00,,,0.00,898,weatherlink.com 1.10,2013-07-06 20:33:00,
2013-07-06 16:02:00,84.4,70.0,29.98,South,181,4.0,7.0,63,0.00,,,0.00,118,weatherlink.com 1.10,2013-07-06 21:02:00,
2013-07-06 16:33:00,84.5,70.0,29.98,SE,126,3.0,8.0,63,0.00,,,0.00,104,weatherlink.com 1.10,2013-07-06 21:33:00,
2013-07-06 16:48:00,84.0,70.0,29.97,South,174,3.0,5.0,63,0.00,,,0.00,134,weatherlink.com 1.10,2013-07-06 21:48:00,
2013-07-06 17:49:00,84.8,72.0,29.96,SSE,159,2.0,8.0,65,0.00,,,0.00,83,weatherlink.com 1.10,2013-07-06 22:49:00,
2013-07-06 18:20:00,85.0,71.0,29.96,SSE,158,1.0,7.0,63,0.00,,,0.00,88,weatherlink.com 1.10,2013-07-06 23:20:00,
2013-07-06 18:35:00,83.8,71.0,29.97,SE,143,4.0,6.0,65,0.00,,,0.00,81,weatherlink.com 1.10,2013-07-06 23:35:00,
2013-07-06 18:50:00,83.3,71.0,29.98,SSE,152,0.0,3.0,67,0.00,,,0.00,193,weatherlink.com 1.10,2013-07-06 23:50:00,
2013-07-06 19:05:00,83.0,70.0,29.98,South,177,4.0,6.0,66,0.00,,,0.00,35,weatherlink.com 1.10,2013-07-07 00:05:00,
2013-07-06 19:50:00,81.6,71.0,29.98,SSE,153,0.0,1.0,70,0.00,,,0.00,21,weatherlink.com 1.10,2013-07-07 00:50:00,
2013-07-06 20:05:00,80.9,71.0,29.98,ENE,66,0.0,1.0,72,0.00,,,0.00,9,weatherlink.com 1.10,2013-07-07 01:05:00,
2013-07-06 20:21:00,79.6,71.0,29.98,North,5,0.0,1.0,75,0.00,,,0.00,0,weatherlink.com 1.10,2013-07-07 01:21:00,
2013-07-06 20:52:00,77.5,71.0,29.99,North,5,0.0,0.0,79,0.00,,,0.00,0,weatherlink.com 1.10,2013-07-07 01:52:00,
2013-07-06 21:22:00,76.5,71.0,30.00,North,354,0.0,0.0,82,0.00,,,0.00,0,weatherlink.com 1.10,2013-07-07 02:22:00,
2013-07-06 21:52:00,75.5,71.0,30.02,North,354,0.0,0.0,85,0.00,,,0.00,0,weatherlink.com 1.10,2013-07-07 02:52:00,
2013-07-06 22:37:00,75.9,70.0,30.02,SSE,168,2.0,3.0,83,0.00,,,0.00,0,weatherlink.com 1.10,2013-07-07 03:37:00,
2013-07-06 22:52:00,76.1,70.0,30.02,SSE,164,1.0,4.0,82,0.00,,,0.00,0,weatherlink.com 1.10,2013-07-07 03:52:00,
2013-07-06 23:07:00,75.9,70.0,30.02,SSE,160,2.0,5.0,82,0.00,,,0.00,0,weatherlink.com 1.10,2013-07-07 04:07:00,
2013-07-06 23:22:00,75.6,70.0,30.02,SSE,168,3.0,5.0,83,0.00,,,0.00,0,weatherlink.com 1.10,2013-07-07 04:22:00,
2013-07-06 23:37:00,75.3,70.0,30.03,SSE,162,1.0,4.0,84,0.00,,,0.00,0,weatherlink.com 1.10,2013-07-07 04:37:00,
2013-07-06 23:52:00,75.0,70.0,30.03,SE,139,2.0,5.0,85,0.00,,,0.00,0,weatherlink.com 1.10,2013-07-07 04:52:00,